Mountain Home, AR

12:11 PM CDT on October 15, 2019 (GMT -0500)
Baxter County Regional

Weather History for KBPK - August, 2019

Change the Weather History Date:

Thursday, August 29, 2019

  Actual Average (KFLP) Record (KFLP)
Temperature  
Mean Temperature 74 °F -  
Max Temperature 88 °F 88 °F 95 °F (2007)
Min Temperature 59 °F 64 °F 57 °F (2019)
Cooling Degree Days 8    
Growing Degree Days 24 (Base 50)    
Moisture  
Dew Point 65 °F    
Average Humidity 75    
Maximum Humidity 100    
Minimum Humidity 53    
Precipitation  
Precipitation 0.00 in - - ()
Sea Level Pressure  
Sea Level Pressure 30.04 in    
Wind  
Wind Speed 4 mph (SSW)    
Max Wind Speed 8 mph    
Max Gust Speed -    
Visibility 10 miles    
Events      
Averages and records for this station are not official NWS values.
T = Trace of Precipitation, MM = Missing Value Source: NWS Daily Summary

Daily Weather History Graph

Daily Weather History Graph

Search for Another Location

Airport or City:

Astronomy

Aug. 29, 2019 Rise Set
Actual Time 6:38 AM CDT 7:42 PM CDT
Civil Twilight 6:12 AM CDT 8:08 PM CDT
Nautical Twilight 5:40 AM CDT 8:40 PM CDT
Astronomical Twilight 5:08 AM CDT 9:12 PM CDT
Moon 5:28 AM CDT (8/29) 7:37 PM CDT (8/29)
Length of Visible Light 13h 56m
Length of Day
13h 03m
Waning Crescent, 1% of the Moon is Illuminated
Aug 29
Waning Crescent
Aug 30
New
Sep 5
First Quarter
Sep 13
Full
Sep 21
Last Quarter

Hourly Weather History & Observations

Time (CDT) Temp. Heat Index Dew Point Humidity Pressure Visibility Wind Dir Wind Speed Gust Speed Precip Events Conditions
12:53 AM 66.0 °F - 60.1 °F 81% 30.06 in 10.0 mi SW 3.5 mph - N/A   Clear
2:53 AM 62.1 °F - 60.1 °F 93% 30.06 in 10.0 mi Calm Calm - N/A   Clear
3:53 AM 61.0 °F - 60.1 °F 97% 30.05 in 10.0 mi Calm Calm - N/A   Clear
4:53 AM 61.0 °F - 60.1 °F 97% 30.06 in 10.0 mi Calm Calm - N/A   Clear
5:53 AM 60.1 °F - 59.0 °F 96% 30.07 in 10.0 mi Calm Calm - N/A   Clear
6:53 AM 59.0 °F - 59.0 °F 100% 30.09 in 10.0 mi Calm Calm - N/A   Clear
9:53 AM 73.9 °F - 64.0 °F 71% 30.10 in 10.0 mi South 5.8 mph - N/A   Clear
10:53 AM 79.0 °F - 64.0 °F 60% 30.10 in 10.0 mi South 5.8 mph - N/A   Partly Cloudy
11:53 AM 82.0 °F 83.8 °F 64.9 °F 56% 30.08 in 10.0 mi SSW 4.6 mph - N/A   Clear
1:53 PM 86.0 °F 90.1 °F 69.1 °F 57% 30.04 in 10.0 mi SW 8.1 mph - N/A   Clear
2:53 PM 88.0 °F 92.1 °F 69.1 °F 53% 30.03 in 10.0 mi South 8.1 mph - N/A   Partly Cloudy
3:53 PM 87.1 °F 91.3 °F 69.1 °F 55% 30.02 in 10.0 mi SSW 6.9 mph - N/A   Clear
4:53 PM 86.0 °F 89.4 °F 68.0 °F 55% 30.00 in 10.0 mi South 8.1 mph - N/A   Clear
5:53 PM 84.9 °F 88.8 °F 69.1 °F 59% 29.99 in 10.0 mi South 6.9 mph - N/A   Clear
6:53 PM 82.0 °F 85.9 °F 70.0 °F 67% 30.00 in 10.0 mi SSW 5.8 mph - N/A   Clear
7:53 PM 78.1 °F - 70.0 °F 76% 30.01 in 10.0 mi South 3.5 mph - N/A   Clear
8:53 PM 75.0 °F - 69.1 °F 82% 30.01 in 10.0 mi South 5.8 mph - N/A   Partly Cloudy
10:53 PM 73.0 °F - 66.9 °F 81% 30.04 in 10.0 mi South 5.8 mph - N/A   Clear
11:53 PM 71.1 °F - 66.0 °F 84% 30.03 in 10.0 mi South 5.8 mph - N/A   Clear